Weather in Dzerzhinskoye

Russia / Primorsky Krai     44°05′56″N   131°45′15″E
temp.,
°C
wind,
m/s
gust,
m/s
humid.,
%
clouds,
%
prec.,
mm/h
press.,
hPa
HPBL,
m
26 january, tue
tue2601:00−13e2286100 0.0 102642
04:00−8ssw2996100 0.2 1023227
07:00−2s61490100 0.1 1021599
10:00−1s81689100 0.1 1019662
13:000s81589100 0.0 1017750
16:000ssw61197100 0.5 1015664
19:000ssw3597100 1.8 1015141
22:00−3nw3392100 1.8 101546
27 january, wed
wed2701:00−6nw239498 0.6 1017100
04:00−8wnw4128098 0.9 1019463
07:00−14w46818 0.0 102091
10:00−13wnw35814 0.0 1022104
13:00−9wnw46690 0.0 1023971
16:00−9wnw256412 0.0 10221320
19:00−14ene227773 0.0 102421
22:00−17se118154 0.0 102520
28 january, thu
thu2801:00−19ne12811 0.0 102520
04:00−21n118129 0.0 102420
07:00−21se0182100 0.0 102220
10:00−17n1281100 0.0 102161
13:00−14ne3481100 0.0 1015327
16:00−14nne61094100 1.2 1011426
19:00−14nne81593100 2.4 1009619
22:00−14n101792100 5.2 1007733
29 january, fri
fri2901:00−15n101791100 1.6 1008825
04:00−16nnw111888100 2.7 1009896
07:00−17nnw101785100 0.2 1011900
10:00−19nnw81677100 0.3 10151033
13:00−17nnw81374100 0.0 10161119
16:00−16nnw71170100 0.0 10181276
19:00−21nw497667 0.0 1021175
22:00−26nw238036 0.0 102323
30 january, sat
sat3001:00−29nw11800 0.0 102419
04:00−30ene11800 0.0 102619
07:00−31n00800 0.0 102519
10:00−27nnw117819 0.0 102531
13:00−21ne1282100 0.0 1023274
16:00−19ene118097 0.0 1022332
19:00−24nne119024 0.0 102320
22:00−22nne229162 0.0 102420